Weather History for KBIX - September, 2012

Change the Weather History Date:

Thursday, September 13, 2012

  Actual Average (WUND) Record (WUND)
Temperature  
Mean Temperature 78 °F -  
Max Temperature 86 °F - - (-1)
Min Temperature 70 °F - - (-1)
Cooling Degree Days 12    
Growing Degree Days 28 (Base 50)    
Moisture  
Dew Point 69 °F    
Average Humidity 73    
Maximum Humidity 84    
Minimum Humidity 61    
Precipitation  
Precipitation 0.00 in - - ()
Sea Level Pressure  
Sea Level Pressure 30.13 in    
Wind  
Wind Speed 9 mph (East)    
Max Wind Speed 17 mph    
Max Gust Speed 21 mph    
Visibility 10 miles    
Events      
Averages and records for this station are not official NWS values.
T = Trace of Precipitation, MM = Missing Value Source: NWS Daily Summary

Daily Weather History Graph

Daily Weather History Graph

Search for Another Location

Airport or City:

Trip Planner

Search our weather history database for the weather conditions in past years. The results will help you decide how hot, cold, wet, or windy it might be!

Date:

Astronomy

Sep. 13, 2012 Rise Set
Actual Time 6:39 AM CDT 7:03 PM CDT
Civil Twilight 6:15 AM CDT 7:27 PM CDT
Nautical Twilight 5:46 AM CDT 7:55 PM CDT
Astronomical Twilight 5:18 AM CDT 8:23 PM CDT
Moon 4:06 AM CDT (9/13) 5:20 PM CDT (9/13)
Length of Visible Light 13h 11m
Length of Day
12h 23m
Waning Crescent, 7% of the Moon is Illuminated
Sep 13
Waning Crescent
Sep 15
New
Sep 22
First Quarter
Sep 29
Full
Oct 8
Last Quarter

Hourly Weather History & Observations

Time (CDT) Temp. Heat Index Dew Point Humidity Pressure Visibility Wind Dir Wind Speed Gust Speed Precip Events Conditions
12:55 AM 74.3 °F - 67.5 °F 79% 30.14 in 10.0 mi ENE 6.9 mph - N/A   Clear
1:55 AM 72.9 °F - 67.1 °F 82% 30.13 in 10.0 mi ENE 6.9 mph - N/A   Clear
2:55 AM 72.7 °F - 65.7 °F 79% 30.13 in 10.0 mi ENE 5.8 mph - N/A   Clear
3:55 AM 71.2 °F - 65.8 °F 83% 30.12 in 10.0 mi NE 5.8 mph - N/A   Clear
4:55 AM 70.7 °F - 64.8 °F 81% 30.12 in 10.0 mi ENE 6.9 mph - N/A   Clear
5:55 AM 71.1 °F - 64.4 °F 79% 30.12 in 10.0 mi ENE 8.1 mph - N/A   Clear
6:55 AM 71.4 °F - 64.9 °F 80% 30.14 in 10.0 mi ENE 9.2 mph - N/A   Clear
7:55 AM 73.8 °F - 66.2 °F 77% 30.15 in 10.0 mi East 10.4 mph - N/A   Clear
8:55 AM 77.7 °F - 68.7 °F 74% 30.16 in 10.0 mi East 9.2 mph - N/A   Clear
9:55 AM 82.4 °F 86.7 °F 70.7 °F 68% 30.17 in 10.0 mi East 9.2 mph 20.7 mph N/A   Clear
10:55 AM 85.1 °F 89.8 °F 70.5 °F 61% 30.17 in 10.0 mi ESE 12.7 mph 18.4 mph N/A   Partly Cloudy
11:55 AM 85.1 °F 90.4 °F 71.4 °F 63% 30.17 in 10.0 mi SSE 16.1 mph - N/A   Clear
12:55 PM 84.7 °F 90.0 °F 71.4 °F 64% 30.15 in 10.0 mi SE 17.3 mph - N/A   Clear
1:55 PM 85.6 °F 90.8 °F 70.7 °F 61% 30.13 in 10.0 mi SE 16.1 mph - N/A   Partly Cloudy
2:55 PM 85.3 °F 90.8 °F 71.4 °F 63% 30.11 in 10.0 mi SE 15.0 mph - N/A   Partly Cloudy
3:55 PM 84.9 °F 90.1 °F 71.2 °F 63% 30.09 in 10.0 mi SE 12.7 mph - N/A   Clear
4:55 PM 83.5 °F 88.5 °F 71.6 °F 67% 30.09 in 10.0 mi SSE 15.0 mph - N/A   Clear
5:55 PM 81.1 °F 85.6 °F 72.0 °F 74% 30.10 in 10.0 mi SE 11.5 mph - N/A   Partly Cloudy
6:55 PM 80.2 °F 83.3 °F 69.8 °F 70% 30.10 in 10.0 mi ESE 8.1 mph - N/A   Partly Cloudy
7:55 PM 79.5 °F - 69.1 °F 70% 30.11 in 10.0 mi ESE 5.8 mph - N/A   Partly Cloudy
8:55 PM 78.3 °F - 68.4 °F 71% 30.13 in 10.0 mi ESE 4.6 mph - N/A   Partly Cloudy
9:55 PM 77.9 °F - 70.2 °F 77% 30.14 in 10.0 mi East 4.6 mph - N/A   Clear
10:55 PM 74.8 °F - 69.8 °F 84% 30.15 in 10.0 mi NE 4.6 mph - N/A   Clear
11:55 PM 73.9 °F - 68.7 °F 84% 30.16 in 10.0 mi NE 5.8 mph - N/A   Clear